Location: Austin
(30.3000°N, 97.7500°W)
Time: 19:17:10
(UTC-06:00)

USA 281 - Pass Details

Date: 31 October 2024
Orbit: 1078 x 1081 km, 106.0° (Epoch: 04 November)

Event Time Altitude Azimuth Distance (km) Brightness Sun altitude
Rises 05:49:00 0° 149° (SSE) 3,860 6.6 -25.5°
Reaches altitude 10° 05:51:31 10° 146° (SE) 2,907 5.9 -24.9°
Maximum altitude 05:57:58 65° 66° (ENE) 1,173 3.5 -23.5°
Drops below altitude 10° 06:04:27 10° 346° (NNW) 2,921 5.3 -22.2°
Sets 06:06:59 0° 343° (NNW) 3,880 5.9 -21.6°
